一网星座-0555星 (ONEWEB-0555)

导读 | 星芒AI

ONEWE-0555 是 OneWeb 卫星通信网络中的一个成员,属于其低轨卫星星座的一部分,旨在提供全球范围的高速互联网服务。该卫星由空中客车防务与航天公司制造,于2022年发射,运行在约1200公里的近地轨道上。OneWeb 项目专注于为偏远地区和航空、航海等移动用户提供稳定、低延迟的宽带连接。ONEWE-0555 在提升全球数字接入和推动卫星互联网普及方面发挥着重要作用。

基本信息
目录编号:
56057
目录名称:
ONEWEB-0555
国际标识:
2023-043M
轨道中心:
EARTH
卫星名称:
一网星座-0555星
卫星全名:
一网星座-0555星 (ONEWEB-0555)
卫星状态:
在轨 (已飞行949 天)
发射日期:
2023-03-26 UTC
国别 :
英国 (GB)
星等 :
--
轨道信息
数据来源 国际轨道数据 AOE轨道数据
星历时间 2025-10-30T06:28:31+0800
9小时前
查看轨道信息
2025-10-30T07:00:00+0800
8小时前
查看轨道信息
半长轴 7575.89km 7575.889km
偏心率 0.000189 0.0002012
轨道倾角 87.899° 87.900°
近地点辐角 66.815° 69.745°
升交点赤经 274.632° 274.628°
平近点角 293.318° 33.966°
近地点 1196.323km 1196.229km
远地点 1199.187km 1199.279km
周期 109.373分钟 109.373分钟
每日圈数 13.165953 13.165955
详细信息
平衡模式:
三轴稳定
覆盖范围:
全球
运营商:
一网卫星公司
运营商所在国:
英国
制造商(研发单位):
一网卫星公司
制造商所在国:
英国
使用方式:
暂无
卫星简介
OneWeb卫星网络由648颗重约125公斤的微型卫星组成,运行在1200公里的轨道上。 每颗卫星都能够提供至少每秒8千兆位的吞吐量,以使用其高吞吐量的Ku频段有效载荷为家庭和移动平台提供互联网接入。该卫星仍在工作。
2D轨道图
3D轨道图
轨道高度分析图
轨道倾角分析图
轨道综合分析图
查看轨道综合分析图